Regional Weather Roundup
Issued by NWS

Home | Current Version | Previous Version | Graphics & Text | Print | Product List | Glossary On
Versions: 1 2 3 4 5 6 7 8 9 10 11 12 13 14 15 16 17 18 19 20 21 22 23 24 25 26 27 28 29 30 31 32 33 34 35 36 37 38 39 40 41 42 43 44 45 46 47 48 49 50
000
ASUS45 KCYS 041710
RWRWY

WYOMING REGIONAL WEATHER ROUNDUP
NATIONAL WEATHER SERVICE CHEYENNE WY
1000 AM MST SUN DEC 04 2016

NOTE:  "FAIR" INDICATES FEW OR NO CLOUDS BELOW 12,000 FEET
WITH NO SIGNIFICANT WEATHER AND/OR OBSTRUCTIONS TO VISIBILITY.

WYZ001-041800-
YELLOWSTONE NATIONAL PARK

CITY           SKY/WX    TMP DP  RH WIND       PRES   REMARKS
LK YELLOWSTONE   N/A     20  16  84 VRB7      29.83F WCI  11
W YELLOWSTONE  NOT AVBL

$$
WYZ002>013-054>058-071-098>099-041800-
NORTHERN WYOMING

CITY           SKY/WX    TMP DP  RH WIND       PRES   REMARKS
JACKSON        CLOUDY    27  25  93 S17       29.93F WCI  14
CODY           PTSUNNY   37  21  52 SW12G21   29.79S WCI  29
GREYBULL       FAIR      30  17  58 VRB5      29.83F WCI  25
WORLAND        FAIR      31  21  66 CALM      29.82F
SHERIDAN       CLOUDY    37  19  48 CALM      29.78F
BUFFALO        PTSUNNY   36  11  35 S7        29.79F WCI  30
GILLETTE       FAIR      34  14  43 SW17      29.80F WCI  23
HULETT         FAIR      32  18  55 SW9       29.83F WCI  24
NEWCASTLE      FAIR      28  12  50 SE3       29.89F

$$
WYZ014>020-022>026-101>103-041800-
CENTRAL WYOMING

CITY           SKY/WX    TMP DP  RH WIND       PRES   REMARKS
BIG PINEY      CLOUDY    19  16  88 CALM      30.01S
PINEDALE       LGT SNOW  19  18  93 MISG      30.01S
DUBOIS         LGT SNOW  27  19  74 NW15G26   29.83F WCI  15
LANDER         FAIR      25  11  55 N3        29.85F
RIVERTON       FAIR      27  10  49 SW3       29.86F
CASPER         FAIR      34  17  50 SW21G30   29.88F WCI  22
DOUGLAS        FAIR      38  18  44 W17G28    29.87F WCI  28

$$
WYZ021-027>030-104>119-041800-
SOUTHERN WYOMING

CITY           SKY/WX    TMP DP  RH WIND       PRES   REMARKS
EVANSTON       FAIR      25  12  58 SW16      30.06F WCI  12
FORT BRIDGER   SUNNY     32  12  43 W20G25    30.06S WCI  20
ROCK SPRINGS   FAIR      27  13  55 SW7       30.03F WCI  19
DIXON          PTSUNNY   21  13  69 CALM      30.14F
RAWLINS        FAIR      27  13  55 SW25G40   29.98F WCI  12
SARATOGA       FAIR      30  14  51 NE3       30.04S
LARAMIE        FAIR      31   9  39 SW17G24   29.94F WCI  19
CHEYENNE       FAIR      31   8  38 S12       29.95F WCI  22
TORRINGTON     FAIR      41  14  33 W20G32    29.91F
PINE BLUFFS    FAIR      32  12  43 S13       29.97F WCI  22

$$



USA.gov is the U.S. government's official web portal to all federal, state and local government web resources and services.